F8983 Weather Reports


Display with metric or nautical units.
time (UTC)temp
F
wind
direction
speed
MPH
gust
MPH
rain 1hr
in
rain 24hr
in
rain mn
in
humidity
%
barometer
mb
20260505022511 75 0 0.0 1.0 0.00 0.00 0.00 48 1008.9
20260505022011 75 0 0.0 1.0 0.00 0.00 0.00 47 1009.0
20260505021532 75 0 0.0 1.0 0.00 0.00 0.00 47 1009.0
20260505021014 76 0 0.0 1.0 0.00 0.00 0.00 46 1009.0
20260505020513 76 0 0.0 1.0 0.00 0.00 0.00 45 1008.9
20260505020030 76 0 0.0 1.0 0.00 0.00 0.00 45 1009.0
20260505015512 76 0 0.0 2.0 0.00 0.00 0.00 44 1009.0
20260505015017 76 0 0.0 2.0 0.00 0.00 0.00 43 1009.1
20260505014542 77 0 0.0 4.0 0.00 0.00 0.00 43 1009.0
20260505014011 77 0 0.0 5.0 0.00 0.00 0.00 43 1009.0
20260505013510 77 0 0.0 5.0 0.00 0.00 0.00 42 1009.0
20260505013032 77 79 1.0 5.0 0.00 0.00 0.00 42 1009.0
20260505012511 77 0 0.0 3.0 0.00 0.00 0.00 43 1009.0
20260505012011 77 0 1.0 3.0 0.00 0.00 0.00 43 1008.9
20260505011530 77 86 0.0 2.0 0.00 0.00 0.00 42 1009.0
20260505011011 78 0 0.0 3.0 0.00 0.00 0.00 42 1009.0
20260505010510 78 0 1.0 4.0 0.00 0.00 0.00 42 1009.1
20260505010029 78 0 0.0 4.0 0.00 0.00 0.00 40 1009.1
20260505005511 78 0 0.0 4.0 0.00 0.00 0.00 41 1009.2
20260505005010 78 88 0.0 4.0 0.00 0.00 0.00 41 1009.1
20260505004531 78 88 0.0 6.0 0.00 0.00 0.00 41 1009.1
20260505004011 78 0 0.0 6.0 0.00 0.00 0.00 40 1009.1
20260505003510 78 110 1.0 3.0 0.00 0.00 0.00 39 1009.1
20260505003032 78 111 0.0 3.0 0.00 0.00 0.00 39 1009.1
20260505002510 78 111 1.0 6.0 0.00 0.00 0.00 38 1009.1
20260505002010 78 0 0.0 6.0 0.00 0.00 0.00 40 1009.2
20260505001534 78 0 0.0 7.0 0.00 0.00 0.00 38 1009.2
20260505001011 78 111 0.0 7.0 0.00 0.00 0.00 39 1009.2
20260505000511 78 115 1.0 4.0 0.00 0.00 0.00 39 1009.2
20260505000029 78 115 1.0 4.0 0.00 0.00 0.00 38 1009.1
20260504235511 78 111 2.0 5.0 0.00 0.00 0.00 37 1009.2
20260504235010 78 92 1.0 5.0 0.00 0.00 0.00 37 1009.2
20260504234530 78 38 0.0 5.0 0.00 0.00 0.00 40 1009.3
20260504234013 78 40 1.0 5.0 0.00 0.00 0.00 38 1009.3
20260504233510 78 38 1.0 5.0 0.00 0.00 0.00 37 1009.2
20260504233030 78 25 0.0 4.0 0.00 0.00 0.00 40 1009.3
20260504232513 78 352 1.0 4.0 0.00 0.00 0.00 39 1009.3
20260504232015 78 5 0.0 9.0 0.00 0.00 0.00 40 1009.3
20260504231532 78 9 2.0 9.0 0.00 0.00 0.00 39 1009.3
20260504231011 78 43 0.0 4.0 0.00 0.00 0.00 41 1009.3
20260504230512 78 43 1.0 7.0 0.00 0.00 0.00 40 1009.3
20260504230030 78 42 2.0 7.0 0.00 0.00 0.00 41 1009.3
20260504225512 78 65 2.0 5.0 0.00 0.00 0.00 40 1009.3
20260504225013 78 59 0.0 4.0 0.00 0.00 0.00 40 1009.4
20260504224536 78 57 2.0 4.0 0.00 0.00 0.00 41 1009.5
20260504224010 78 55 2.0 5.0 0.00 0.00 0.00 41 1009.5
20260504223515 79 55 2.0 5.0 0.00 0.00 0.00 40 1009.6
20260504223028 79 63 2.0 5.0 0.00 0.00 0.00 40 1009.6
20260504222509 79 76 1.0 5.0 0.00 0.00 0.00 40 1009.8
20260504222015 80 69 2.0 5.0 0.00 0.00 0.00 40 1009.9
20260504221532 79 74 0.0 4.0 0.00 0.00 0.00 40 1009.9
20260504221009 80 0 1.0 4.0 0.00 0.00 0.00 39 1009.9
20260504220517 80 69 1.0 4.0 0.00 0.00 0.00 39 1010.0
20260504220030 80 77 1.0 4.0 0.00 0.00 0.00 39 1010.1
20260504215509 80 76 1.0 4.0 0.00 0.00 0.00 38 1010.1
20260504215012 80 0 1.0 3.0 0.00 0.00 0.00 39 1010.2
20260504214530 80 75 1.0 4.0 0.00 0.00 0.00 39 1010.2
20260504214008 80 75 0.0 4.0 0.00 0.00 0.00 39 1010.2
20260504213515 80 65 1.0 4.0 0.00 0.00 0.00 37 1010.1
20260504213028 80 72 1.0 4.0 0.00 0.00 0.00 38 1010.2
20260504212515 80 71 1.0 4.0 0.00 0.00 0.00 39 1010.2
20260504212015 79 65 1.0 4.0 0.00 0.00 0.00 37 1010.2
20260504211533 79 71 1.0 4.0 0.00 0.00 0.00 38 1010.2
20260504211008 79 70 1.0 4.0 0.00 0.00 0.00 37 1010.2
20260504210513 79 74 0.0 7.0 0.00 0.00 0.00 39 1010.3
20260504210037 78 0 1.0 7.0 0.00 0.00 0.00 39 1010.3
20260504205510 78 138 2.0 7.0 0.00 0.00 0.00 37 1010.4
20260504205013 78 155 1.0 5.0 0.00 0.00 0.00 39 1010.5
20260504204532 78 0 2.0 6.0 0.00 0.00 0.00 42 1010.5
20260504204014 78 197 1.0 6.0 0.00 0.00 0.00 42 1010.5
20260504203513 78 189 2.0 6.0 0.00 0.00 0.00 41 1010.4
20260504203031 78 0 2.0 4.0 0.00 0.00 0.00 40 1010.4
20260504202510 77 0 1.0 6.0 0.00 0.00 0.00 41 1010.4
20260504202013 77 214 1.0 6.0 0.00 0.00 0.00 41 1010.4
20260504201530 77 213 2.0 7.0 0.00 0.00 0.00 41 1010.4
20260504201010 78 214 2.0 7.0 0.00 0.00 0.00 40 1010.4
20260504200511 78 206 1.0 6.0 0.00 0.00 0.00 43 1010.4
20260504200030 77 106 1.0 6.0 0.00 0.00 0.00 40 1010.4
20260504195509 77 107 2.0 6.0 0.00 0.00 0.00 41 1010.4
20260504195014 77 113 1.0 6.0 0.00 0.00 0.00 44 1010.3
20260504194528 76 114 1.0 4.0 0.00 0.00 0.00 43 1010.4
20260504194011 76 114 0.0 6.0 0.00 0.00 0.00 45 1010.5
20260504193511 76 114 2.0 6.0 0.00 0.00 0.00 43 1010.7
20260504193028 76 111 1.0 6.0 0.00 0.00 0.00 43 1010.7
20260504192509 76 114 1.0 6.0 0.00 0.00 0.00 43 1010.8
20260504192014 76 67 1.0 4.0 0.00 0.00 0.00 45 1010.8
20260504191531 76 67 1.0 4.0 0.00 0.00 0.00 46 1010.8
20260504191011 76 67 0.0 4.0 0.00 0.00 0.00 45 1010.8
20260504190513 75 0 2.0 4.0 0.00 0.00 0.00 44 1010.9
20260504190030 75 67 2.0 4.0 0.00 0.00 0.00 43 1010.9
20260504185508 75 69 0.0 4.0 0.00 0.00 0.00 46 1011.0
20260504185012 74 69 1.0 4.0 0.00 0.00 0.00 45 1010.9
20260504184530 74 69 3.0 4.0 0.00 0.00 0.00 44 1011.0
20260504184009 74 83 2.0 4.0 0.00 0.00 0.00 45 1010.9
20260504183514 74 42 1.0 6.0 0.00 0.00 0.00 46 1010.9
20260504183030 74 45 1.0 6.0 0.00 0.00 0.00 48 1011.0
20260504182511 74 44 2.0 6.0 0.00 0.00 0.00 46 1011.0
20260504182016 74 178 1.0 4.0 0.00 0.00 0.00 48 1011.0
20260504181529 74 171 1.0 5.0 0.00 0.00 0.00 48 1011.0
20260504181011 74 171 2.0 5.0 0.00 0.00 0.00 48 1011.1
20260504180514 73 0 1.0 6.0 0.00 0.00 0.00 49 1011.0
20260504180032 73 174 1.0 6.0 0.00 0.00 0.00 49 1011.0
20260504175511 73 176 0.0 3.0 0.00 0.00 0.00 50 1011.0
20260504175011 72 0 1.0 3.0 0.00 0.00 0.00 49 1011.0
20260504174530 72 178 1.0 6.0 0.00 0.00 0.00 53 1011.0
20260504174007 71 178 1.0 6.0 0.00 0.00 0.00 54 1010.9
20260504173509 71 0 0.0 4.0 0.00 0.00 0.00 54 1010.9
20260504173029 71 213 0.0 4.0 0.00 0.00 0.00 54 1010.9
20260504172509 70 0 1.0 4.0 0.00 0.00 0.00 55 1010.9
20260504172016 70 215 1.0 4.0 0.00 0.00 0.00 54 1010.9
20260504171530 69 215 1.0 4.0 0.00 0.00 0.00 55 1011.0
20260504171011 69 213 1.0 3.0 0.00 0.00 0.00 57 1010.9
20260504170517 69 213 1.0 4.0 0.00 0.00 0.00 59 1010.9
20260504151009 56 0 0.0 2.0 0.00 0.00 0.00 83 1010.3
20260504150511 56 0 0.0 2.0 0.00 0.00 0.00 84 1010.3
20260504141012 51 0 0.0 0.0 0.00 0.00 0.00 88 1010.1
20260504140510 51 0 0.0 0.0 0.00 0.00 0.00 88 1010.1
20260504130513 50 0 0.0 0.0 0.00 0.00 0.00 87 1009.6
20260504110507 52 0 0.0 0.0 0.00 0.00 0.00 85 1009.5
20260504100512 53 0 0.0 0.0 0.00 0.00 0.00 85 1009.2
20260504081534 55 0 0.0 0.0 0.00 0.00 0.00 82 1009.2
20260504081010 56 0 0.0 0.0 0.00 0.00 0.00 81 1009.2
20260504080513 56 0 0.0 0.0 0.00 0.00 0.00 81 1009.3
20260504050511 63 0 0.0 0.0 0.00 0.00 0.00 72 1009.4
20260504045510 64 0 0.0 0.0 0.00 0.00 0.00 72 1009.5
20260504045013 64 0 0.0 0.0 0.00 0.00 0.00 72 1009.5
20260504044529 65 0 0.0 0.0 0.00 0.00 0.00 71 1009.5
20260504044008 65 0 0.0 0.0 0.00 0.00 0.00 71 1009.4
20260504043511 65 0 0.0 0.0 0.00 0.00 0.00 71 1009.4
20260504043029 65 0 0.0 0.0 0.00 0.00 0.00 71 1009.4
20260504042509 66 0 0.0 0.0 0.00 0.00 0.00 70 1009.5
20260504042011 66 0 0.0 0.0 0.00 0.00 0.00 69 1009.4
20260504041541 67 0 0.0 0.0 0.00 0.00 0.00 69 1009.3
20260504041009 67 0 0.0 0.0 0.00 0.00 0.00 69 1009.3
20260504040510 67 0 0.0 0.0 0.00 0.00 0.00 68 1009.3
20260504040029 68 0 0.0 0.0 0.00 0.00 0.00 67 1009.2
20260504035511 68 0 0.0 0.0 0.00 0.00 0.00 67 1009.2
20260504035013 68 0 0.0 0.0 0.00 0.00 0.00 66 1009.2
20260504034534 69 0 0.0 0.0 0.00 0.00 0.00 66 1009.2
20260504034008 69 0 0.0 0.0 0.00 0.00 0.00 65 1009.0
20260504033508 70 0 0.0 0.0 0.00 0.00 0.00 63 1009.0
20260504033029 70 0 0.0 0.0 0.00 0.00 0.00 63 1009.0
20260504032511 71 0 0.0 0.0 0.00 0.00 0.00 61 1009.0
20260504032013 71 0 0.0 0.0 0.00 0.00 0.00 61 1009.0
20260504031533 72 0 0.0 0.0 0.00 0.00 0.00 60 1008.9
20260504031008 72 0 0.0 1.0 0.00 0.00 0.00 59 1008.9
20260504030511 73 0 0.0 1.0 0.00 0.00 0.00 58 1008.9
20260504030034 73 0 0.0 1.0 0.00 0.00 0.00 56 1008.9
20260504025510 74 0 0.0 1.0 0.00 0.00 0.00 55 1008.9
20260504025011 75 0 0.0 1.0 0.00 0.00 0.00 54 1008.9
20260504024528 76 0 0.0 1.0 0.00 0.00 0.00 53 1008.8
20260504024011 76 0 0.0 2.0 0.00 0.00 0.00 51 1008.8
20260504023508 77 0 0.0 2.0 0.00 0.00 0.00 50 1008.8
20260504023028 77 0 1.0 3.0 0.00 0.00 0.00 48 1008.8